Dewpoint
-3 -4 -4 -5 -17 -21 -16 2 2 3 1 4 4 2 3 1 1 0 -0 -1 -0 1 -0 1 1 2 1 -0 -0 2 0 3 6 5 4 4 4 5 3 4 4 1 2 -0
-4 -4 -4 -5 -14 -6 -2 1 1 3 2 5 2 1 2 1 1 0 0 -1 -1 -1 -0 1 1 1 -1 -1 -0 0 1 3 5 6 2 3 6 4 5 3 2 3 3 -1
-4 -4 -4 -6 -14 -4 1 2 1 1 3 2 2 2 1 2 1 1 -1 -1 -2 -1 -0 -2 1 2 -0 -1 -0 -1 -1 2 1 3 2 3 3 4 4 4 4 4 3 -2
-3 -4 -4 -5 -11 -9 -3 -1 0 0 2 1 1 1 2 2 3 1 0 -0 -1 -0 -0 -1 1 1 1 -0 -1 -1 1 1 -1 1 2 2 3 3 3 5 2 4 2 -2
-3 -3 -4 -5 -6 -11 -16 -1 -1 -1 -0 -0 1 1 3 3 3 2 2 0 -0 -1 1 0 -0 1 0 0 0 -0 1 2 1 -0 1 2 2 2 2 2 1 1 1 2
-3 -4 -4 -4 -4 -6 -6 -6 -4 -0 -1 -2 1 1 1 2 2 2 2 1 1 -1 2 1 -0 -2 -2 -2 0 1 2 1 -0 1 1 1 2 1 1 1 1 1 3 -0
-3 -4 -4 -4 -4 -3 -4 -4 -4 -3 -3 -8 -4 -5 -5 -3 -1 2 1 2 2 1 -0 -1 -1 -2 -2 -1 -1 -1 2 2 1 1 1 3 -2 -1 -1 -0 -0 -0 -0 -1
-3 -3 -3 -3 -3 -3 -3 -4 -4 -3 -4 -6 -8 -10 -8 -3 -0 1 2 4 3 1 1 1 2 2 1 0 -1 -1 -0 2 2 2 3 0 1 1 1 1 1 -1 -1 -2
-3 -3 -2 -2 -2 -3 -3 -2 -3 -3 -3 -5 -7 -7 -5 -3 -1 2 2 2 3 2 3 3 4 4 2 3 2 -1 -1 -0 1 4 3 4 3 -1 -1 -0 5 0 -2 -2
-2 -2 -3 -2 -2 -2 -3 -2 -3 -3 -3 -3 -4 -5 -5 -5 -6 -3 1 -3 1 3 3 4 3 2 -0 3 3 3 3 2 3 4 4 1 -2 -0 -0 6 4 1 -1 -2
-1 -2 -2 -2 -2 -3 -2 -1 -2 -2 -2 -3 -3 -4 -4 -6 -7 -5 -5 -1 1 3 4 4 3 2 0 0 -0 2 2 2 3 3 3 3 1 2 4 2 2 2 1 0
-2 -2 -2 -3 -3 -2 -2 -2 -1 -2 -2 -4 -5 -4 -3 -3 -5 -5 -6 -4 -4 0 3 3 3 3 -0 -0 2 -1 2 0 2 1 1 -3 2 1 2 2 2 2 1 2
-1 -2 -2 -3 -3 -2 -2 -1 -2 -4 -3 -4 -5 -5 -5 -5 -5 -5 -6 -3 -1 -1 -3 -1 2 5 3 2 1 -0 -1 -2 -0 -0 -2 -2 -2 0 1 1 2 2 1 1
-2 -3 -3 -2 -2 -2 -2 -2 -4 -2 -3 -3 -5 -4 -5 -6 -4 -4 -4 -3 -2 -2 -3 -3 -1 2 2 3 2 0 -0 -1 -0 -0 -1 -0 -0 0 1 1 1 1 2 1
-3 -3 -2 -1 -2 -3 -5 -5 -7 -4 -3 -3 -5 -4 -5 -5 -5 -6 -5 -3 -3 -4 -4 -3 -2 -1 0 0 2 1 -0 0 1 1 -1 -1 -2 -1 -0 1 1 2 2 1
-3 -2 -2 -3 -4 -5 -5 -3 -5 -4 -4 -4 -3 -5 -4 -6 -5 -5 -5 -4 -4 -5 -4 -4 -5 -5 -3 -1 0 -1 -1 -1 0 -1 0 -0 -1 -0 1 1 2 2 1 1
-3 -2 -3 -4 -5 -5 -4 -4 -4 -4 -3 -4 -4 -4 -4 -4 -4 -4 -4 -4 -4 -4 -4 -4 -6 -6 -3 -1 -2 -5 -4 -1 -1 1 1 2 2 2 2 2 2 1 1 -0
-3 -4 -4 -5 -5 -5 -4 -6 -5 -3 -3 -5 -6 -5 -3 -2 -2 -3 -5 -5 -4 -4 -4 -4 -5 -6 -6 -3 -7 -7 -6 0 1 2 1 1 2 1 1 0 0 -0 -0 -0
-5 -5 -4 -5 -5 -4 -5 -4 -4 -4 -3 -3 -3 -2 -2 -1 -2 -1 -3 -4 -3 -5 -3 -4 -5 -4 -3 -5 -5 -7 -8 0 1 0 1 1 1 0 0 -0 -0 -0 0 1
-4 -3 -4 -3 -5 -4 -4 -2 -2 -3 -4 -4 -4 -3 -2 -2 -2 -1 -2 -3 -3 -4 -4 -5 -3 -3 -6 -6 -6 -2 -2 -2 0 0 0 -0 -0 -1 -0 0 1 1 1 1
-5 -4 -6 -5 -4 -3 -2 -2 -3 -2 -2 -2 -3 -2 -2 -3 -1 -1 -1 -1 -1 -3 -1 -2 0 3 0 0 -2 1 1 1 1 -1 -1 -0 0 1 1 1 1 1 1 1
-9 -9 -5 -4 -2 -2 -5 -7 -2 -2 -1 -1 -1 -2 -3 -2 -2 -1 -1 1 1 0 -1 1 3 2 -0 -1 -1 -2 -2 1 0 -0 1 2 1 1 1 1 1 1 1 1
-7 -10 -6 -3 -4 -8 -8 -7 -6 -6 -2 -2 -2 -3 -3 -3 -2 -1 0 2 2 1 3 3 2 -0 -1 -2 -1 -1 -1 -0 0 0 0 -0 0 -1 -1 -2 -2 -2 -1 -0
-6 -9 -12 -8 -8 -8 -7 -6 -7 -3 -3 -6 -3 -2 -2 -3 -1 1 2 2 2 2 3 3 0 -1 -2 -2 -2 -2 -2 -1 -1 -1 -1 -2 -2 -4 -6 -7 -8 -7 -6 -5
-6 -7 -10 -9 -4 -2 -4 -5 -7 -7 -7 -4 -4 -3 -2 -2 -1 0 1 2 2 2 1 1 -0 -1 -2 -3 -3 -2 -2 -2 -2 -2 -1 -3 -10 -11 -12 -13 -13 -11 -9 -8
-6 -6 -8 -5 -6 -5 -4 -5 -6 -5 -6 -5 -3 -3 -1 -1 -0 0 2 3 0 1 0 -0 -1 -2 -2 -2 -3 -4 -6 -7 -8 -8 -8 -11 -15 -17 -20 -22 -22 -21 -16 -13
-6 -6 -6 -4 -4 -6 -6 -5 -6 -6 -7 -7 -5 -4 -4 -4 -2 -0 0 -0 -0 0 -0 -1 -1 -1 -2 -3 -5 -7 -13 -15 -8 -4 -7 -5 -5 -12 -22 -24 -24 -23 -21 -19
Wind_Speed
26 29 28 30 31 27 18 4 2 2 4 2 4 2 3 1 4 2 2 1 3 4 1 2 4 4 2 13 11 7 3 4 3 2 4 9 1 5 5 4 4 3 3 5
25 27 25 28 29 22 20 7 4 3 6 1 2 2 2 0 2 1 2 1 1 2 2 2 5 4 3 5 2 5 5 2 3 1 2 4 4 5 3 2 2 4 4 4
23 25 25 26 24 16 12 5 3 2 2 7 2 1 4 3 2 1 1 1 2 1 0 1 3 3 1 2 2 2 3 4 6 7 5 5 5 10 10 5 2 3 5 2
22 26 23 25 25 15 8 7 3 4 3 5 6 4 3 2 2 1 1 1 3 2 3 3 4 3 2 2 1 2 3 4 2 2 3 3 4 7 15 11 7 7 4 8
18 25 28 22 24 17 21 4 5 8 6 10 5 6 6 5 5 3 1 1 5 3 3 2 1 6 4 4 1 3 2 1 2 3 4 4 4 7 8 12 11 7 6 5
17 21 25 26 22 23 12 13 5 3 7 5 2 4 5 7 5 4 5 5 3 2 0 3 3 3 6 9 7 5 3 4 3 3 3 1 7 14 15 8 7 15 12 14
16 17 21 24 23 20 20 18 8 5 4 4 4 7 10 10 9 3 9 9 1 5 7 2 4 6 7 9 5 8 5 4 3 2 3 1 6 1 8 17 7 11 7 7
13 17 20 21 21 17 16 16 11 5 3 10 6 12 5 10 12 2 2 5 5 5 4 2 2 2 4 4 5 4 4 4 2 3 3 6 3 3 5 7 8 13 14 9
12 14 17 17 18 17 16 11 13 4 2 3 7 5 7 3 4 5 6 6 6 2 2 1 3 3 4 2 2 2 2 4 3 2 2 4 2 2 2 2 4 1 17 12
12 14 15 14 16 16 12 7 11 8 4 1 13 3 3 6 4 3 2 9 6 5 1 1 2 3 3 3 5 4 2 1 4 4 2 6 6 3 4 3 3 2 11 20
14 15 14 15 15 15 9 8 10 12 4 15 2 1 9 12 4 2 7 2 5 4 1 1 2 2 4 2 4 6 6 5 4 4 4 7 4 4 4 3 2 6 12 15
13 13 14 12 14 15 12 10 13 11 7 11 17 6 7 15 10 3 4 1 1 3 2 2 3 2 1 5 3 2 3 6 4 7 5 6 11 3 7 7 8 6 10 10
13 11 10 11 12 13 14 10 14 14 6 11 4 4 5 9 10 20 3 2 2 4 8 3 2 4 3 2 5 5 4 6 3 0 3 5 11 10 9 8 8 9 9 12
8 9 7 8 12 13 14 11 10 4 4 2 3 5 14 13 7 4 17 7 2 5 5 1 2 3 5 3 4 2 6 7 6 4 5 6 6 15 14 11 9 10 10 9
8 7 7 10 13 15 7 4 5 2 2 1 8 7 8 5 2 2 5 9 9 4 3 2 3 4 3 3 3 7 5 5 4 5 9 10 9 15 17 14 13 11 9 7
9 9 10 12 13 6 3 2 2 4 5 1 2 6 4 7 3 3 7 7 7 5 4 5 5 5 3 3 5 3 21 18 12 8 10 8 10 13 18 16 13 10 8 7
11 11 11 7 6 6 5 3 6 7 5 2 3 5 3 8 4 1 5 6 6 6 4 4 4 5 6 3 9 14 21 24 28 13 16 12 16 10 16 12 10 8 7 8
13 10 4 6 9 6 6 7 8 8 3 3 2 3 4 5 4 3 3 3 4 5 4 4 5 3 6 5 12 28 26 20 5 19 12 11 13 11 10 8 7 6 7 8
8 4 8 6 6 4 6 5 5 7 5 3 3 2 3 6 4 4 3 2 2 4 3 4 3 3 6 10 17 22 18 11 23 3 7 11 11 9 6 5 5 5 5 7
3 1 2 4 5 5 3 3 3 3 3 3 2 2 3 5 4 3 2 5 3 2 5 5 3 4 23 22 18 14 10 21 13 10 7 8 8 7 5 3 3 3 6 8
3 2 3 3 4 5 2 1 3 3 2 1 2 4 5 9 3 3 5 2 2 2 3 3 3 2 5 4 8 6 8 10 9 1 5 5 5 5 4 3 1 2 5 6
2 3 4 2 4 3 3 2 1 1 2 3 2 6 12 7 5 4 4 3 3 5 7 3 2 2 9 6 5 2 5 8 7 4 6 7 7 5 3 2 2 3 4 4
2 2 1 0 2 7 5 4 5 3 2 2 8 7 3 4 5 6 3 4 4 1 3 1 2 11 9 7 5 4 3 6 9 6 4 5 5 3 1 0 2 3 5 6
2 1 3 2 3 1 4 4 4 5 7 14 14 5 3 3 3 3 4 3 2 2 2 4 4 18 11 8 4 3 2 1 4 5 3 3 3 3 2 3 4 5 5 5
2 0 2 3 2 3 3 5 6 6 10 13 7 5 4 3 4 3 4 3 2 5 5 4 18 20 10 8 5 3 2 0 2 2 2 3 2 3 3 4 5 6 7 8
1 2 2 1 1 1 3 5 6 5 9 9 3 2 2 3 3 3 4 6 5 4 4 19 22 17 10 5 5 3 2 2 3 5 3 3 4 4 4 6 7 8 8 9
1 0 3 5 6 6 3 3 4 5 4 0 3 2 3 5 3 3 2 2 2 11 14 18 23 19 10 5 6 5 1 1 2 3 2 4 8 8 6 6 7 8 9 10
Wind_Direction
350 355 0 358 355 352 6 21 66 274 282 194 154 137 211 85 156 201 267 306 5 7 91 323 67 130 103 154 176 160 215 121 130 210 175 205 261 174 194 145 232 222 157 273
352 357 3 3 2 359 358 9 319 315 300 317 79 210 121 109 153 133 10 165 31 22 336 90 107 83 357 50 91 157 167 86 108 95 201 168 214 206 199 99 73 222 165 260
3 6 9 9 9 5 6 32 6 321 269 319 321 22 179 167 144 169 53 332 337 265 56 104 133 111 39 44 95 123 127 153 162 192 209 143 195 186 190 155 175 200 220 191
16 17 19 18 18 15 25 19 34 15 328 345 324 325 5 178 166 245 158 234 232 272 191 149 128 103 100 6 202 41 96 149 130 252 138 125 183 185 191 195 201 184 224 185
16 17 18 17 20 33 48 58 17 346 285 314 321 344 355 39 28 20 101 288 305 269 49 49 67 135 158 193 199 166 46 180 88 311 236 170 244 238 219 223 218 253 254 278
14 18 17 20 20 26 40 24 359 315 297 338 25 11 347 352 30 49 32 322 326 25 61 351 46 121 186 166 152 178 122 124 88 263 155 278 292 223 215 214 202 214 218 224
17 21 20 23 25 32 37 21 2 348 308 19 38 10 354 355 341 298 311 349 15 359 346 342 57 49 106 147 167 152 134 122 118 201 37 256 246 161 196 211 221 211 215 208
11 12 18 21 24 24 19 21 21 20 323 339 4 356 339 329 348 277 282 33 4 330 347 99 86 0 357 205 173 169 160 142 154 139 209 278 260 230 186 172 248 209 207 201
11 11 12 9 14 18 17 22 15 19 359 357 340 322 348 348 334 344 9 355 360 7 33 308 199 195 185 208 192 200 220 161 134 192 228 251 292 240 215 92 285 205 200 193
8 4 8 5 359 9 18 10 15 9 323 273 344 349 321 336 343 297 337 340 0 13 33 274 223 228 154 179 185 166 167 112 189 241 247 280 253 204 137 142 261 310 209 191
4 360 4 5 6 6 11 357 359 3 305 302 261 226 320 318 309 319 334 340 25 359 262 212 245 204 237 192 193 173 165 173 189 196 225 266 178 113 182 208 103 115 123 149
357 2 2 4 2 9 355 354 348 338 303 278 297 300 318 233 249 299 337 359 330 35 287 16 309 305 289 184 235 141 185 187 189 180 212 235 198 246 175 173 156 155 148 145
344 341 346 353 359 352 352 335 337 335 308 311 326 53 27 16 257 245 262 44 52 58 32 340 300 271 350 230 237 190 244 166 212 138 251 227 202 196 191 177 173 178 175 163
323 337 340 343 349 346 339 339 334 340 308 295 305 336 315 320 272 225 213 195 135 330 344 318 286 283 10 293 301 232 214 157 188 241 272 269 244 211 208 201 194 184 179 185
336 343 334 334 333 334 347 8 29 333 332 287 303 334 357 16 56 141 174 216 237 249 233 188 227 243 285 258 279 245 239 195 172 216 231 222 239 238 206 197 182 181 187 194
334 335 321 327 335 353 93 107 75 11 360 77 316 332 324 343 322 258 226 226 233 217 213 240 250 242 230 260 268 222 255 267 284 212 199 209 217 191 187 185 186 199 216 237
328 326 325 342 45 80 76 52 337 350 358 87 325 333 332 330 319 275 199 198 214 223 247 241 250 269 231 264 252 290 300 313 309 238 169 140 162 162 173 192 197 216 237 257
330 333 1 92 92 80 44 19 349 345 34 46 59 291 329 347 312 284 197 193 209 229 250 255 233 240 219 256 264 245 255 295 300 182 186 179 177 173 182 195 214 239 262 272
350 74 114 103 54 27 353 21 55 58 54 67 34 357 302 332 297 272 199 198 261 245 230 235 214 225 232 234 254 253 245 252 320 213 140 153 168 178 201 223 251 266 277 288
30 131 66 55 24 18 60 34 24 38 44 67 181 250 276 307 316 266 210 189 230 242 233 192 228 250 263 253 262 278 245 241 316 244 151 170 181 191 200 234 265 290 303 306
5 5 68 68 64 47 354 4 40 1 4 313 275 264 297 302 237 276 228 243 224 267 235 190 245 265 328 344 210 173 180 226 257 240 145 161 173 183 183 175 201 338 318 315
45 106 104 90 61 36 56 305 343 66 248 296 266 310 306 286 262 254 246 247 206 252 138 230 261 353 326 308 304 220 184 195 187 168 121 113 107 101 101 101 47 356 337 341
63 77 51 336 59 41 84 323 314 342 305 259 319 326 283 298 264 257 261 244 237 282 227 262 46 335 338 332 321 289 248 199 187 178 158 122 100 97 126 345 321 333 333 329
48 50 17 112 334 229 181 180 205 292 281 309 319 275 269 281 279 273 261 257 273 276 308 35 348 341 337 333 335 354 347 249 206 202 170 107 104 84 46 14 6 357 339 341
82 207 194 221 178 196 209 259 274 300 307 318 315 298 255 265 280 260 283 252 240 48 3 307 329 336 328 340 338 349 29 45 145 147 149 91 66 57 22 14 11 4 3 3
145 239 35 199 300 256 204 253 266 301 324 322 297 326 300 277 314 284 278 339 46 339 308 325 339 340 328 323 332 332 3 93 90 100 71 45 31 16 9 7 0 2 5 4
213 38 232 243 279 266 255 257 278 301 329 359 308 322 231 316 283 269 134 157 252 314 329 340 351 343 323 311 309 292 289 135 156 258 239 4 2 348 342 351 1 0 358 356
Height
1496 1491 1485 1478 1471 1464 1462 1462 1461 1464 1461 1459 1455 1466 1458 1456 1458 1457 1457 1455 1454 1455 1452 1454 1455 1462 1460 1462 1466 1470 1470 1480 1490 1489 1488 1488 1487 1490 1492 1504 1497 1505 1508 1486
1494 1489 1485 1479 1473 1466 1462 1463 1464 1462 1464 1458 1456 1455 1457 1457 1457 1457 1456 1456 1456 1455 1454 1458 1459 1462 1462 1461 1463 1465 1467 1483 1491 1493 1492 1490 1488 1486 1485 1488 1493 1497 1497 1486
1493 1488 1484 1479 1473 1468 1466 1464 1466 1461 1459 1461 1454 1454 1454 1456 1456 1456 1457 1457 1456 1456 1455 1454 1460 1464 1464 1463 1463 1464 1465 1475 1484 1488 1480 1477 1484 1477 1479 1486 1499 1483 1484 1473
1494 1489 1483 1479 1475 1469 1467 1471 1472 1473 1468 1462 1464 1456 1451 1451 1455 1455 1455 1456 1456 1457 1456 1455 1458 1462 1465 1465 1465 1465 1467 1482 1480 1472 1469 1472 1472 1473 1475 1484 1479 1483 1472 1475
1495 1490 1485 1480 1477 1473 1467 1470 1474 1472 1468 1463 1464 1461 1459 1455 1455 1455 1453 1455 1453 1454 1457 1457 1456 1459 1463 1464 1466 1466 1469 1484 1481 1486 1471 1472 1474 1471 1471 1471 1471 1472 1472 1473
1496 1492 1487 1483 1480 1477 1476 1478 1476 1476 1468 1464 1464 1468 1465 1461 1459 1457 1457 1457 1456 1454 1457 1456 1456 1456 1455 1458 1464 1468 1470 1482 1492 1491 1471 1473 1480 1464 1462 1461 1460 1460 1470 1459
1496 1492 1489 1486 1483 1482 1482 1482 1479 1479 1476 1469 1470 1469 1467 1465 1463 1464 1459 1456 1454 1459 1457 1456 1456 1456 1456 1458 1460 1462 1471 1475 1486 1491 1482 1492 1454 1446 1448 1452 1451 1453 1454 1456
1497 1494 1491 1489 1487 1485 1484 1484 1481 1480 1482 1476 1472 1470 1469 1465 1462 1462 1461 1459 1460 1458 1458 1459 1462 1465 1462 1459 1459 1461 1462 1468 1479 1484 1476 1464 1448 1447 1447 1451 1448 1445 1447 1451
1497 1494 1491 1490 1488 1486 1486 1485 1484 1481 1481 1480 1479 1475 1472 1471 1469 1463 1462 1461 1460 1460 1460 1460 1460 1461 1461 1465 1462 1460 1461 1462 1473 1472 1474 1470 1445 1442 1442 1442 1448 1435 1439 1444
1496 1494 1490 1490 1488 1486 1486 1487 1486 1486 1484 1480 1478 1477 1477 1474 1472 1470 1466 1464 1461 1462 1464 1463 1463 1461 1455 1465 1464 1466 1464 1466 1474 1471 1471 1459 1444 1441 1442 1451 1446 1436 1435 1439
1496 1494 1491 1490 1488 1485 1485 1486 1487 1486 1484 1481 1479 1477 1478 1476 1475 1473 1470 1467 1467 1466 1465 1464 1462 1463 1458 1455 1455 1460 1465 1471 1473 1471 1467 1469 1440 1443 1446 1441 1438 1438 1436 1438
1495 1493 1491 1488 1488 1485 1483 1485 1485 1485 1483 1482 1479 1476 1473 1473 1475 1475 1473 1474 1473 1473 1471 1469 1465 1459 1457 1456 1459 1451 1458 1454 1458 1457 1455 1441 1439 1439 1439 1439 1439 1440 1440 1441
1494 1492 1490 1489 1486 1486 1483 1483 1482 1482 1481 1478 1479 1475 1474 1472 1473 1474 1475 1474 1474 1475 1476 1476 1471 1462 1458 1455 1453 1446 1443 1442 1447 1446 1439 1438 1437 1438 1438 1439 1439 1440 1442 1443
1492 1490 1489 1487 1484 1483 1481 1482 1481 1481 1482 1481 1479 1476 1474 1472 1470 1470 1471 1473 1473 1475 1477 1477 1474 1469 1461 1454 1449 1446 1439 1438 1440 1441 1437 1436 1435 1435 1435 1437 1438 1439 1441 1443
1491 1489 1487 1485 1482 1480 1478 1479 1479 1479 1480 1480 1477 1476 1474 1472 1471 1470 1470 1471 1473 1475 1475 1474 1472 1467 1464 1456 1451 1441 1436 1434 1437 1437 1430 1430 1430 1429 1433 1434 1436 1439 1440 1442
1489 1486 1484 1482 1480 1478 1477 1479 1480 1479 1478 1475 1478 1476 1474 1473 1473 1471 1470 1471 1472 1473 1472 1469 1465 1463 1463 1459 1443 1429 1432 1431 1430 1425 1426 1426 1427 1428 1430 1433 1435 1437 1439 1440
1487 1485 1482 1480 1477 1477 1478 1482 1483 1480 1477 1475 1476 1475 1473 1472 1472 1471 1470 1470 1471 1472 1471 1467 1465 1462 1461 1451 1438 1434 1427 1428 1425 1426 1422 1426 1427 1429 1431 1432 1434 1435 1436 1437
1484 1482 1480 1478 1476 1477 1479 1479 1480 1480 1478 1477 1479 1478 1474 1473 1472 1471 1468 1468 1469 1468 1467 1463 1459 1458 1457 1449 1429 1427 1426 1428 1423 1421 1419 1421 1425 1428 1430 1431 1432 1433 1434 1434
1481 1480 1481 1480 1477 1479 1480 1479 1479 1479 1483 1482 1483 1484 1480 1473 1472 1469 1468 1467 1468 1466 1463 1458 1457 1452 1445 1426 1425 1422 1424 1425 1425 1425 1418 1422 1424 1426 1429 1429 1430 1431 1431 1431
1482 1483 1481 1480 1482 1482 1482 1482 1480 1480 1480 1481 1483 1482 1480 1476 1472 1467 1467 1466 1466 1465 1454 1452 1449 1441 1424 1421 1422 1421 1420 1423 1424 1424 1421 1422 1423 1425 1427 1428 1428 1429 1428 1428
1483 1484 1482 1483 1482 1483 1485 1484 1483 1483 1483 1482 1482 1481 1478 1474 1472 1468 1464 1460 1459 1463 1448 1448 1438 1425 1424 1422 1423 1423 1422 1424 1425 1423 1421 1422 1423 1424 1425 1426 1426 1426 1426 1425
1483 1483 1483 1482 1483 1484 1487 1489 1484 1483 1484 1481 1480 1478 1476 1472 1469 1466 1461 1454 1452 1448 1444 1442 1428 1430 1427 1424 1423 1423 1423 1423 1423 1424 1422 1423 1423 1424 1425 1425 1425 1425 1424 1422
1483 1482 1484 1485 1486 1490 1497 1503 1493 1490 1481 1479 1478 1477 1473 1471 1468 1463 1457 1449 1440 1440 1435 1429 1433 1433 1429 1427 1424 1422 1422 1421 1419 1420 1423 1424 1424 1425 1425 1425 1425 1424 1422 1421
1482 1482 1488 1490 1493 1490 1490 1491 1491 1487 1482 1480 1477 1475 1473 1469 1467 1458 1451 1441 1440 1436 1429 1433 1437 1434 1431 1428 1426 1425 1423 1422 1422 1422 1423 1423 1424 1424 1425 1424 1423 1422 1422 1420
1482 1483 1488 1489 1482 1482 1484 1486 1485 1484 1482 1480 1476 1475 1474 1469 1465 1457 1448 1439 1434 1438 1448 1444 1440 1435 1431 1430 1428 1426 1425 1424 1423 1423 1423 1423 1424 1424 1424 1423 1422 1421 1420 1418
1483 1483 1484 1483 1484 1481 1481 1482 1482 1481 1480 1479 1477 1473 1472 1467 1463 1458 1446 1438 1451 1453 1450 1446 1440 1436 1433 1430 1429 1428 1427 1426 1426 1426 1425 1425 1424 1424 1423 1422 1421 1419 1418 1416
1482 1484 1483 1483 1483 1481 1479 1479 1480 1480 1479 1481 1479 1476 1473 1470 1466 1458 1452 1455 1454 1452 1449 1445 1442 1437 1434 1432 1431 1429 1428 1427 1426 1426 1425 1424 1423 1424 1422 1421 1419 1418 1416 1415